User: anonymous   Login
Location: Newark
(37.8333°N, 119.5000°W)
Time: 00:51:35
(UTC+00:00)
Language:

Vanguard 2 Rocket - Orbit

View from above orbital plane
View from above orbital plane
View from above satellite
View from above satellite

Ground track
Ground track

The orbit data is extracted from the following two-line orbital elements,

1    12U 59001B   19232.67134524 +.00000244 +00000-0 +12538-3 0  9999
2    12 032.9131 326.8221 1667447 289.3342 053.4780 11.44289435245407
Epoch (UTC): 20 August 2019 16:06:44
Eccentricity: 0.1667447
inclination: 32.9131°
perigee height: 553 km
apogee height: 3327 km
right ascension of ascending node: 326.8221°
argument of perigee: 289.3342°
revolutions per day: 11.44289435
mean anomaly at epoch: 53.4780°
orbit number at epoch: 24540

The dashed part of the orbit path shows where the satellite is in the earth's shadow,  

DLR